Location: Oshawa
(43.9000°N, 78.8670°W)
Time: 03:20:07
(UTC-04:00)

Iridium 54 - Visible Passes

Search period start: 26 March 2017 00:00
Search period end: 05 April 2017 00:00
Orbit: 776 x 779 km, 86.4° (Epoch: 24 March)

Date Brightness Start Highest point End Pass type
(mag) Time Alt. Az. Time Alt. Az. Time Alt. Az.
26 Mar 8.4 01:25:12 10° NNE 01:25:30 11° NNE 01:25:30 11° NNE visible
26 Mar 8.2 03:05:43 10° NNW 03:05:59 11° NNW 03:05:59 11° NNW visible
27 Mar 8.2 02:31:53 10° N 02:32:35 14° N 02:32:35 14° N visible
28 Mar 8.2 01:58:18 10° N 01:59:10 15° N 01:59:10 15° N visible
29 Mar 8.3 01:25:01 10° NNE 01:25:47 14° NNE 01:25:47 14° NNE visible
29 Mar 8.2 03:06:10 10° NNW 03:06:15 10° NNW 03:06:15 10° NNW visible
30 Mar 8.3 00:52:03 10° NNE 00:52:23 11° NNE 00:52:23 11° NNE visible
30 Mar 8.1 02:32:07 10° NNW 02:32:51 14° NNW 02:32:51 14° NNW visible
31 Mar 8.1 01:58:24 10° N 01:59:28 16° N 01:59:28 16° N visible
01 Apr 8.1 01:24:56 10° N 01:26:05 17° N 01:26:05 17° N visible
02 Apr 8.1 00:51:44 10° NNE 00:52:42 15° NNE 00:52:42 15° NNE visible
02 Apr 8.1 02:32:28 10° NNW 02:33:10 13° NNW 02:33:10 13° NNW visible
03 Apr 8.2 00:19:00 10° NNE 00:19:19 11° NNE 00:19:19 11° NNE visible
03 Apr 8.0 01:58:34 10° N 01:59:47 17° NNW 01:59:47 17° NNW visible
04 Apr 7.9 01:24:57 10° N 01:26:24 19° N 01:26:24 19° N visible
